GFSWCAN_prec_radar_021.txt.gz
Reflectivity
-17 -20 -20 7 3 -19 -20 -15 -20 -20 -20 -20 -20 -20 -20 -20 -15 -14 -20 -20 -20 -20 -20 -20 -20 -20 -20 -20 -20 -20 -20 -20 -20 -20 -20 -20 -20 -20 -20 -20 -20 -20 -20 -20 -20 -20 -20 -20 -20 -20 -20 -20 -20 -20
-20 -20 -20 -20 -20 -20 -4 -20 -20 -20 -20 -20 8 12 4 -20 -20 -20 -20 -20 -20 -20 -20 -20 -20 -20 -20 -20 -20 -20 -20 -20 -20 -20 -20 -20 -20 -20 -20 -20 -20 -20 -20 -20 -20 -20 -20 -20 -20 -20 -20 -20 -20 -20
-20 -20 -20 -20 -20 -20 -8 -20 -20 -20 -16 8 11 11 9 3 -20 -20 -20 -20 -20 -20 -20 -20 -20 -20 -20 -20 -20 -20 -20 -20 -20 -20 -20 -20 -20 -20 -20 -20 -20 -20 -20 -20 -20 -20 -20 -20 -20 -20 -20 -20 -20 -20
-20 -20 -20 -20 -18 -20 -18 -20 -20 5 8 5 8 8 10 4 -20 -20 -20 -20 -20 -20 -20 -20 -20 -20 -20 -20 -20 -20 -20 -20 -20 -20 -20 -20 -20 -20 -20 -20 -20 -20 -20 -20 -20 -20 -20 -20 -20 -20 -20 -20 -20 -20
-3 -20 -6 -20 -20 -18 -20 -4 9 5 8 3 -20 -12 -13 -20 -20 -20 -20 -20 -20 -20 -20 -20 -20 -20 -20 -20 -20 -20 -20 -20 -20 -20 -20 -20 -20 -20 -20 -20 -20 -20 -20 -20 -20 -20 -20 -20 -20 -20 -20 -20 -20 -20
-13 4 -19 -20 -0 11 -20 10 10 7 11 10 -5 -20 -20 -20 -20 -20 -20 -20 -20 -20 -20 -20 -20 -20 -20 -20 -20 -20 -20 -20 -20 -20 -20 -20 -20 -20 -20 -20 -20 -20 -20 -20 -20 -20 -20 -20 -20 -20 -20 -20 -20 -20
-20 -10 -16 -20 -20 -20 8 10 9 7 2 9 4 -20 -20 -20 -20 -20 -20 -20 -13 -20 -20 -20 -20 -20 -20 -20 -20 -20 -20 -20 -20 -20 2 -20 -20 -20 -20 -20 -20 -20 -20 -20 -20 -20 -20 -20 -20 -20 -20 -20 -20 -14
11 4 -17 -20 -16 -20 -8 -13 9 9 10 11 -20 -20 -19 -20 -20 -20 -20 -14 -14 -20 -20 -20 -20 -20 -20 -8 -8 -20 -7 -20 -20 -18 -5 -19 -3 -8 -13 -20 -20 -20 -20 -20 -20 -20 -20 -20 -20 -20 -20 -20 -4 -0
25 23 12 -19 -9 4 1 7 -10 9 8 2 -20 -20 -20 -20 -20 -20 -20 -6 -20 -20 -20 -8 -20 -20 -20 -20 -20 -20 -17 -20 -20 -13 -18 -20 -3 -20 -20 -20 -20 -20 -20 -20 -20 -20 -20 -20 -20 -19 -15 -20 20 26
28 24 16 -20 -20 -17 10 9 -20 10 9 -20 -20 -20 -20 -20 -4 -20 -20 -20 -20 -20 -20 -2 -19 -20 -20 -20 -20 -20 -9 -20 -20 -20 -20 -20 -20 -20 -20 -20 -20 -20 -20 -20 -20 -20 -20 -20 -20 -19 22 35 25 25
23 19 18 11 -14 -12 9 -4 -20 -20 -20 -20 -20 -6 -20 -20 -20 -20 -20 -20 -20 -20 -20 -20 -3 -20 -20 -20 -20 -20 -20 -20 -6 -20 -20 -14 -20 -20 -20 -20 -20 -20 -20 -20 -20 -20 -20 9 28 38 19 10 12 6
-4 -9 7 2 3 9 9 9 6 -16 -20 -20 -20 -20 -20 -20 -20 -20 -20 -20 -14 -20 -20 0 -20 -20 -20 -20 -20 -20 -20 -20 -20 -20 -20 -20 -20 -20 -20 -20 -20 -20 -20 -20 -18 -3 18 32 26 22 13 2 3 -8
-18 -19 7 12 12 9 4 14 15 3 -8 -20 -18 -20 -20 -20 -20 -10 1 -3 -20 -14 -10 -20 -20 -20 -20 -6 0 14 7 -14 -12 -20 -20 8 4 2 15 18 24 29 28 20 21 24 9 14 21 15 6 -5 -4 -6
-20 -20 -7 5 7 11 12 12 4 23 26 23 13 21 -6 -10 -17 -4 -20 -19 -8 -11 -11 -15 -19 -18 -13 -13 11 -12 1 -6 1 -20 -18 3 28 26 11 3 -20 -3 15 19 4 0 1 0 -2 -7 -14 -17 -20 -14
-20 -20 -20 -20 -20 -18 -1 8 13 1 -19 4 7 7 1 -19 2 -11 -6 9 17 20 17 20 14 17 8 13 -13 -5 6 10 -8 -18 0 17 30 27 -19 -20 0 -2 6 -3 -5 -20 -20 -20 -20 -20 -20 -20 -20 -20
-20 -20 -20 -20 -20 -20 -20 -20 -20 -20 -20 -20 -20 -20 -20 -14 -20 -9 3 -18 -13 7 16 15 -8 -12 8 5 -14 -17 -20 -20 -20 -18 -2 18 23 27 28 29 23 -0 -4 8 3 -1 -19 -20 -20 -20 -20 -20 -20 -20
-20 -20 -20 -20 -20 -20 -20 -20 -20 -20 -20 -20 -20 -20 -20 -20 -12 -7 18 -6 -9 -8 -20 -20 -20 -20 -20 -20 -18 -11 3 3 9 15 2 5 6 6 5 5 6 6 1 -1 -10 -20 -20 -20 -20 -20 -20 -20 -20 -20
-10 -20 -20 -20 -20 -20 -20 -20 -20 -20 -20 -18 -20 -19 -20 -20 -10 -11 -11 -14 -20 -20 -20 -20 -20 -20 -20 -20 -20 -20 7 -8 -2 6 5 1 2 1 -5 -12 -20 -20 -20 -20 -20 -20 -20 -20 -20 -20 -20 -20 -20 -20
-20 -20 -20 -20 -20 -20 -20 -20 -20 -20 -20 -19 -17 6 -4 -9 -20 -20 -20 -20 -20 -20 -20 -20 -20 -20 -20 -20 -20 -20 -20 -20 -18 -20 -20 -20 -20 -20 -20 -20 -20 -20 -20 -20 -20 -20 -20 -20 -20 -20 -20 -20 -20 -20
-20 -20 -20 -20 -20 -20 -20 -20 -20 -20 -20 -20 -4 7 11 7 -1 -4 -2 -20 -20 -20 -20 -20 -20 -20 -20 -20 -20 -20 -20 -20 -20 -20 -20 -20 -20 -20 -20 -20 -20 -20 -20 -20 -20 -20 -20 -20 -20 -20 -20 -20 -20 -20
-20 -20 -20 -20 -20 -20 -20 -20 -20 -20 7 -20 -20 -20 -20 3 -10 0 2 -20 -20 -20 -20 -20 -20 -20 -20 -20 -20 -20 -20 -20 -20 -20 -20 -20 -20 -20 -20 -20 -20 -20 -20 -20 -20 -14 -2 -20 -20 -20 -20 -20 -20 -20
-20 -20 -20 -20 -20 -20 -20 -20 -20 -20 -20 -20 -20 -13 -19 9 3 3 -20 -20 -20 -20 -20 -20 -20 -20 -20 -20 -20 -20 -20 -20 -20 -20 -20 -20 -20 -20 -20 -20 -20 -20 -20 -20 -20 -20 -13 -20 -20 -20 -20 -20 -14 -7
-20 -20 -20 -20 -20 -20 -20 -20 -20 -20 -13 -20 -20 -20 -20 -20 -20 -20 -20 -20 -20 -20 -20 -20 -20 -20 -20 -20 -20 -20 -20 -20 -20 -20 -20 -20 -20 -20 -20 -20 -20 -20 -20 -20 -15 -20 -20 -20 -20 -20 -20 -20 -20 -20
-20 -20 -20 -19 -20 -20 -20 -20 -20 -20 -20 -20 -20 -20 -20 -20 -20 -20 -20 -20 -20 -20 -20 -20 -20 -20 -20 -20 -20 -20 -20 -20 -20 -20 -20 -20 -20 -20 -20 -20 -20 -20 -20 -20 -20 -20 -20 -20 -20 -20 -20 -20 -20 -20
-20 -20 -20 -20 -20 -20 -20 -20 -20 -20 -20 -20 -20 -20 -20 -20 -20 -20 -20 -20 -20 -20 -20 -20 -20 -20 -20 -20 -20 -20 -20 -20 -20 -20 -20 -20 -20 -20 -20 -20 -20 -20 -20 -20 -20 -20 -20 -20 -20 -20 -20 -20 -20 -20
-20 -20 -20 -20 -20 -20 -20 -20 -20 -20 -20 -20 -20 -20 -20 -16 -17 -20 -20 -17 -18 -19 -18 -20 -20 -20 -20 -20 -20 -20 -20 -20 -20 -20 -20 -20 -20 -20 -20 -20 -20 -20 -20 -20 -20 -20 -20 -20 -20 -20 -20 -20 -20 -20
-20 -20 -20 -20 -20 -11 -17 -20 -20 8 -2 -17 -13 -17 -3 6 -18 -20 -19 -18 -18 -16 -17 -20 -20 -20 -19 -20 -20 -20 -20 -20 -20 -20 -20 -20 -20 -20 -20 -20 -20 -20 -20 -20 -20 -20 -20 -20 -20 -20 -20 -20 -20 -20
-20 -20 -20 -20 -13 -3 3 -12 -1 10 13 10 -4 -9 10 -5 -19 -4 -12 -16 -18 -17 -18 -20 -20 -20 -20 -20 -20 -20 -20 -20 -20 -20 -20 -20 -20 -20 -20 -20 -20 -20 -20 -20 -20 -20 -20 -20 -20 -20 -20 -20 -20 -20
-2 -20 -8 1 -5 -18 -9 8 12 15 11 8 -4 -12 -20 -20 -20 -20 -20 -19 -20 -20 -20 -20 -20 -20 -20 -20 -20 -20 -20 -20 -20 -20 -20 -20 -20 -20 -20 -20 -20 -20 -20 -20 -20 -20 -20 -20 -20 -20 -20 -20 -20 -20
-20 -12 -20 -20 -20 -19 -20 -20 -20 -19 -20 -20 -20 -20 -20 -20 -20 -20 -20 -20 -20 -20 -20 -20 -20 -20 -20 -20 -20 -20 -20 -20 -20 -20 -20 -20 -20 -20 -20 -20 -20 -20 -20 -20 -20 -20 -20 -20 -20 -20 -20 -20 -20 -20
-20 -20 -20 -20 -18 -15 -17 -20 -20 -20 -20 -20 -20 -20 -20 -20 -20 -19 -20 -20 -20 -20 -20 -20 -20 -20 -20 -20 -20 -20 -20 -20 -20 -20 -20 -20 -20 -20 -20 -20 -20 -20 -20 -20 -20 -20 -20 -20 -20 -20 -20 -20 -20 -20
-20 -20 -20 -20 -20 -20 -20 -20 -20 -20 -20 -20 -20 -20 -20 -20 -20 -20 -20 -20 -20 -20 -20 -20 -20 -20 -20 -20 -20 -20 -20 -20 -20 -20 -20 -20 -20 -20 -20 -20 -20 -20 -20 -20 -20 -20 -20 -20 -20 -20 -20 -20 -20 -20
-20 -20 -20 -20 -20 -20 -20 -20 -20 -20 -20 -20 -20 -20 -20 -20 -20 -20 -20 -20 -20 -20 -20 -20 -20 -20 -20 -20 -20 -20 -20 -20 -20 -20 -20 -19 -20 -20 -20 -20 -20 -20 -20 -20 -20 -20 -20 -20 -20 -20 -20 -20 -20 -20

GFSWCAN_prec_radar_024.txt.gz
Reflectivity
-4 -4 -10 -19 -4 -20 -20 -20 -20 -1 -20 -19 -3 -11 -20 -20 -20 -20 -3 -20 -20 -20 -20 -20 -20 -20 -20 -20 -20 -20 -20 -20 -20 -20 -20 -20 -20 -20 -20 -20 -20 -20 -20 -20 -20 -20 -20 -20 -20 -20 -20 -20 -20 -20
5 -5 -6 -1 -20 -20 -20 -20 -20 -20 9 7 9 8 -13 -20 -20 6 -20 -20 -20 -20 -20 -20 -20 -20 -20 -20 -20 -20 -20 -20 -20 -20 -20 -20 -20 -20 -20 -20 -20 -20 -20 -20 -20 -20 -20 -20 -20 -20 -20 -20 -20 -20
-17 -1 -15 -20 -20 -20 -20 -20 -10 15 9 8 10 6 2 -20 -17 12 -18 -20 -20 -20 -20 -20 -20 -20 -20 -20 -20 -20 -20 -20 -20 -20 -20 -20 -20 -20 -20 -20 -20 -20 -20 -20 -20 -20 -20 -20 -20 -20 -20 -20 -20 -20
-20 -20 -20 -20 -20 -19 -20 -10 8 14 12 1 8 10 -20 -20 -20 -11 -15 -20 -20 -20 -20 -20 -20 -20 -20 -20 -20 -20 -20 -20 -20 -20 -20 -20 -20 -20 -20 -20 -20 -20 -20 -20 -20 -20 -20 -20 -20 -20 -20 -20 -20 -20
-20 -20 -20 -20 -20 -14 -1 -1 6 9 12 9 -8 -20 -20 -20 -20 -20 -20 -20 -20 -20 -20 -20 -20 -20 -20 -20 -20 -20 -20 -20 -20 -20 -20 -20 -20 -20 -20 -20 -20 -20 -20 -20 -20 -20 -20 -20 -20 -20 -20 -20 -20 -20
-20 -19 -18 -20 -15 7 8 -19 6 10 -19 -1 -20 -20 -20 -20 -20 -20 -20 -20 -20 -20 -20 -20 -20 -20 -20 -20 -20 -20 -20 -20 -20 -20 -20 -20 -20 -20 -20 -20 -20 -20 -20 -20 -20 -20 -20 -20 -20 -20 -20 -20 -20 -20
-20 -20 -20 -5 5 7 16 -3 10 10 -13 -20 -20 -20 -20 -20 -20 -20 -20 -14 9 -20 -20 -20 -20 -20 -20 -20 -20 -20 -20 -20 -20 -20 -18 -19 -20 -20 -20 -20 -20 -20 -20 -20 -20 -20 -20 -20 -20 -20 -20 -20 -20 -20
-20 -20 -3 11 -2 4 18 3 8 -3 -0 -20 -20 -20 -20 -20 -20 -20 -20 -12 -20 -20 -20 -20 -20 -20 -20 -20 -10 -20 -8 -20 -20 -14 6 -2 5 -5 -13 -20 -20 -20 -20 -20 -20 -20 -20 -20 -20 -20 -20 -20 -18 5
-17 -20 -20 -20 -17 11 19 5 9 9 -15 -20 -20 -20 -20 -20 -20 -20 -20 -20 -20 -20 -20 -20 -20 -20 -20 -18 -19 1 -11 -19 -20 -15 -18 -20 -20 -15 -20 -20 -20 -20 -20 -20 -20 -20 -20 -20 -20 -20 -20 -20 -12 19
16 -11 -20 -20 -16 14 32 5 9 -15 -20 -20 -20 -20 -20 -20 -20 -20 -20 -20 -20 -20 -20 -20 -19 -20 -20 -20 -20 -13 4 -20 -20 -20 -20 -20 -20 -20 -20 -20 -20 -20 -20 -20 -20 -20 -20 -20 -20 -12 10 16 26 37
20 17 15 -0 9 4 -10 -0 -13 -20 -20 -20 -20 -9 -20 -20 -20 -20 -20 -20 -20 -20 -17 -10 -20 -20 -20 -20 -20 -15 -20 -6 -3 -20 -20 -20 -20 -20 -20 -20 -20 -20 -20 -20 -20 -20 -18 -15 5 29 22 30 20 5
27 19 5 -0 5 9 -0 -20 -20 -20 -20 -20 -20 -20 -20 -20 -20 -20 2 -20 -20 -20 -18 -19 -20 -20 -12 -20 -20 -20 -20 -20 -20 -20 -19 -9 -20 -20 -20 -17 -17 -14 -18 -5 5 15 24 30 29 24 26 26 15 8
26 32 28 25 13 15 3 -7 -20 -20 -20 -20 -20 -20 -20 -20 -20 -20 -20 -20 -20 -20 -19 -20 -20 -20 -20 -20 -4 -20 -17 -14 -14 -20 -16 0 22 24 25 23 -8 11 -5 -8 -7 -8 -0 -2 -3 -7 -5 1 6 6
7 8 15 21 29 25 10 7 -18 -17 -19 -13 -20 -20 -20 -20 -20 -19 -20 -20 -20 -20 -20 -20 -20 -20 -20 7 14 20 9 -7 7 -10 -17 -13 26 26 6 -18 -18 4 -20 -20 -20 -20 -20 -11 0 3 2 1 -1 -8
-10 -6 -20 -11 2 -6 15 25 28 20 20 23 13 -4 -2 -20 -20 -20 -8 -17 -10 -7 -15 -16 4 -3 5 21 -18 -20 -20 -20 -20 -20 -20 -18 22 5 -7 -4 -19 -20 -20 -20 -20 -20 -20 -20 -20 -20 -20 -20 -20 -20
-20 -20 -20 -20 -20 -19 1 7 6 -4 1 17 7 -19 -18 -20 -20 -20 -12 -5 3 1 -9 -7 -20 -20 -18 8 -13 -8 -11 -19 -20 -18 7 16 20 16 -20 -20 -20 -20 -20 -20 -20 -20 -20 -20 -20 -20 -20 -20 -20 -20
-20 -7 -18 -20 -20 -20 -20 -20 -20 -20 -20 -20 -18 -20 -20 -20 -15 -15 -3 -6 -10 -15 -20 -20 -20 -20 -20 -20 -20 -20 -20 -20 -11 12 18 -13 -13 -8 1 3 2 -2 -8 -12 -16 -20 -20 -20 -20 -20 -20 -20 -20 -20
-20 -20 -20 -20 -20 -20 -20 -20 -20 -20 -20 -2 -15 -20 -20 -2 8 -3 8 -19 -20 -20 -20 -20 -20 -20 -20 -20 -20 -20 -20 -20 -20 -20 -20 -4 -13 -20 -20 -20 -20 -20 -20 -20 -20 -20 -20 -20 -20 -20 -20 -20 -20 -20
-20 -20 -20 -20 -20 -20 -20 -20 -20 -20 -16 -16 -7 -8 6 3 -11 -20 -20 -20 -20 -20 -20 -20 -20 -20 -20 -20 -20 -20 -20 -20 -20 -20 -20 -20 -20 -20 -20 -20 -20 -20 -20 -20 -20 -20 -20 -20 -20 -20 -20 -20 -20 -20
-20 -20 -20 -20 -20 -20 -20 -20 -20 -20 -20 -16 -9 8 9 0 -20 -20 -20 -20 -20 -20 -20 -20 -20 -20 -20 -20 -20 -20 -20 -20 -20 -20 -20 -20 -20 -20 -20 -20 -20 -20 -20 -20 -20 -20 -20 -20 -20 -20 -20 -20 -20 -20
-20 -20 -20 -20 -20 -20 -20 -20 -20 -20 -3 -20 -20 -15 -13 4 1 5 -20 -20 -20 -20 -20 -20 -20 -20 -20 -20 -20 -20 -20 -20 -20 -20 -20 -20 -20 -20 -20 -20 -20 -20 -20 -20 -20 -20 -20 -20 -20 -20 -20 -20 -20 -20
-20 -20 -20 -20 -20 -20 -20 -20 -15 -20 -20 -20 -20 -20 -20 -17 8 2 -20 -20 -20 -20 -20 -20 -20 -20 -20 -20 -20 -20 -20 -20 -20 -20 -20 -20 -20 -20 -20 -20 -20 -20 -20 -20 -20 -20 -20 -20 -20 -20 -20 -20 -20 -20
-14 -20 -20 -20 -20 -20 -20 -20 -20 -20 -20 -20 -20 -20 -20 -20 -20 -20 -20 -20 -20 -20 -20 -20 -20 -20 -20 -20 -20 -20 -20 -20 -20 -20 -20 -20 -20 -20 -20 -20 -20 -20 -20 -20 -20 -20 -20 -20 -20 -20 -20 -20 -20 -20
-20 -20 -20 -20 -20 -20 -20 -20 -20 -20 -20 -20 -20 -20 -20 -20 -20 -20 -20 -20 -19 -20 -19 -20 -20 -20 -20 -20 -20 -20 -20 -20 -20 -20 -20 -20 -20 -20 -20 -20 -20 -20 -20 -20 -20 -20 -20 -20 -20 -20 -20 -20 -20 -20
-20 -20 -20 -20 -20 -20 -20 -20 -20 -20 -20 -20 -20 -20 -20 -20 -20 -20 -20 -20 -19 -18 -19 -20 -20 -20 -20 -20 -20 -20 -20 -20 -20 -20 -20 -20 -20 -20 -20 -20 -20 -20 -20 -20 -20 -20 -20 -20 -20 -20 -20 -20 -20 -20
-20 -20 -20 -20 -20 -20 -20 -20 -20 -20 -20 -20 -20 -19 -20 -20 -20 -20 -20 -18 -18 -19 -17 -16 -20 -20 -20 -20 -20 -20 -20 -20 -20 -20 -20 -20 -20 -20 -20 -20 -20 -20 -20 -20 -20 -20 -20 -20 -20 -20 -20 -20 -20 -20
-20 -20 -20 -20 -20 -20 -20 -20 -20 -20 -20 -20 -20 -20 -6 4 -12 -20 -13 2 -8 -16 -15 -20 -20 -20 -20 -20 -20 -20 -20 -20 -20 -20 -20 -20 -20 -20 -20 -20 -20 -20 -20 -20 -20 -20 -20 -20 -20 -20 -20 -20 -20 -20
-20 -20 -20 -20 -20 -20 -20 -20 -20 3 5 7 5 -8 7 6 3 2 3 4 -14 -20 -20 -20 -20 -20 -20 -20 -20 -20 -20 -20 -20 -20 -20 -20 -20 -20 -20 -20 -20 -20 -20 -20 -20 -20 -20 -20 -20 -20 -20 -20 -20 -20
-20 -20 -20 -20 -20 -20 -20 -0 3 6 7 11 8 1 -1 -19 -20 -20 -20 -20 -20 -20 -20 -20 -20 -20 -20 -20 -20 -20 -20 -20 -20 -20 -20 -20 -20 -20 -20 -20 -20 -20 -20 -20 -20 -20 -20 -20 -20 -20 -20 -20 -20 -20
-20 -20 -20 -20 -20 -20 -20 -20 -20 -20 -20 -20 -20 -20 -20 -20 -20 -20 -20 -20 -20 -20 -20 -20 -20 -20 -20 -20 -20 -20 -20 -20 -20 -20 -20 -20 -20 -20 -20 -20 -20 -20 -20 -20 -20 -20 -20 -20 -20 -20 -20 -20 -20 -20
-20 -20 -20 -20 -20 -20 -20 -20 -20 -20 -20 -20 -20 -20 -20 -20 -20 -20 -20 -20 -20 -20 -20 -20 -20 -20 -20 -20 -20 -20 -20 -20 -20 -20 -20 -20 -20 -20 -20 -20 -20 -20 -20 -20 -20 -20 -20 -20 -20 -20 -20 -20 -20 -20
-20 -20 -20 -20 -20 -20 -20 -20 -20 -20 -20 -20 -20 -20 -20 -20 -20 -20 -20 -20 -20 -20 -20 -20 -20 -20 -20 -20 -20 -20 -20 -20 -20 -20 -20 -20 -20 -20 -20 -20 -20 -20 -20 -20 -20 -20 -20 -20 -20 -20 -20 -20 -20 -20
-20 -20 -20 -20 -20 -20 -20 -20 -20 -20 -20 -20 -20 -20 -20 -20 -20 -20 -20 -20 -20 -20 -20 -20 -20 -20 -20 -20 -20 -20 -20 -20 -20 -20 -20 -20 -20 -20 -20 -20 -20 -20 -20 -20 -20 -20 -20 -20 -20 -20 -20 -20 -20 -20

GFSWCAN_prec_radar_030.txt.gz
Reflectivity
18 25 33 29 33 30 28 30 17 8 -5 -20 -20 -20 -20 -20 -20 -17 -20 -20 -20 -20 -20 -20 -20 -20 -20 -20 -20 -20 -20 -20 -20 -10 7 -20 -4 -20 -20 -20 -20 -20 -20 -20 -19 13 -20 -20 -20 -6 -20 -20 -20 -20
24 29 31 29 23 34 21 5 -3 -20 -20 -20 -20 -20 -20 -20 -20 20 -20 -20 -20 -20 -20 -20 -20 -20 -20 -20 -20 -20 -20 -20 -20 -20 -12 -20 9 10 -20 -20 -20 -20 -19 -20 -20 -20 -20 -20 -20 -20 -20 -20 -20 -20
33 31 35 30 8 -5 -20 -20 -20 -20 -20 -20 -16 -20 -20 -20 -16 -13 -20 -20 -20 -20 -20 -20 -20 -20 -20 -20 -20 -20 -20 -20 -20 -20 -20 -20 23 -20 -12 -20 -20 -20 -20 -20 -20 -20 -20 -20 -20 -20 -20 -20 -20 -20
13 -19 -17 3 -18 -20 -20 -20 -20 -12 1 2 9 -20 -20 -20 -20 -20 -20 -7 17 -20 18 -20 -20 -20 -20 -20 -20 -20 -20 -20 -20 -20 -20 -12 20 -20 -20 -20 -20 -20 -20 -20 -20 -20 -20 -20 -20 -20 -20 -20 -20 -20
8 2 -1 -4 -3 2 13 7 8 8 5 10 -3 -20 -20 -20 -13 -20 -20 2 3 -19 -9 -20 -20 -20 -20 -20 -20 -20 -20 -20 -20 -20 19 -7 -20 -20 -20 -20 -20 -20 -20 -20 -20 -20 -20 -20 -20 -20 -20 -20 -20 -20
9 9 -20 -0 1 15 1 4 26 25 -18 -19 -20 -20 -20 -20 -20 -20 -11 8 -20 -20 -20 -15 16 -20 -20 -20 -20 -20 -20 -20 -20 -20 -5 -20 -20 -20 11 -20 -20 -20 -20 -20 -20 -20 -20 -20 -20 -20 -20 -20 -20 -20
-1 -7 7 10 -14 -15 -20 4 25 -9 -20 -20 -20 -20 -20 20 -20 -20 20 -8 -5 -20 -20 -14 -20 -20 -20 -20 -20 -20 -20 -20 -20 -20 -20 -20 -20 -20 -6 -20 -20 -20 -20 -20 -20 -20 -20 -20 -20 -20 -20 -20 -20 -20
-1 5 2 10 3 11 1 -14 -11 -14 -7 -2 10 -20 30 -20 6 26 21 -3 -20 -20 -20 -14 -9 -20 -20 -20 -20 -20 -20 -20 -20 -20 -20 -20 -12 -14 -20 -20 -20 -20 -20 -20 -20 -20 -20 -20 -20 -20 -20 -20 -20 -11
2 4 1 4 -1 -5 1 -20 -20 -15 -20 -17 22 -11 20 22 3 -16 -8 -20 -20 -20 -20 17 1 15 -20 -20 -20 -20 -20 -20 -20 2 -20 -20 -20 -14 -20 -20 -20 -20 -20 -13 -20 -20 -20 -20 -20 -4 -2 0 -4 12
-20 -20 1 7 -20 1 32 -11 -20 -20 -20 -20 -20 -20 -20 -20 -5 -4 -20 -20 -20 -20 -20 -20 -20 -20 -20 -20 -14 -20 -20 -20 -19 -1 -20 3 -20 -20 -20 -20 -20 -20 -20 -20 -20 -15 -20 -18 -17 -11 -19 -20 -20 -19
-20 -20 -20 -20 6 28 13 -18 30 16 -15 -20 -18 1 -20 -20 -20 -20 -20 -20 -20 8 -20 -20 -15 -20 -20 -20 -8 -20 -2 -20 -11 -20 -3 -20 -20 -14 -4 -20 -16 -20 -18 -20 -20 -20 -20 -20 -20 -20 -20 -20 -15 -20
5 10 -20 -20 -20 -20 8 14 -20 -18 -20 -19 -11 -19 -20 -20 -20 1 -20 -15 -20 -19 -20 -16 -20 -2 -16 -20 -20 -20 -18 -20 -20 -18 3 -20 -2 -2 -2 -1 -2 -11 -11 -8 -20 -20 -20 -20 -20 -14 -20 -20 -20 -20
-20 -20 -20 -20 -20 -20 -20 9 28 -6 -20 -20 -20 -20 -20 -6 12 13 -15 -14 2 -12 -2 5 8 -20 -20 -20 -8 -10 8 -20 -20 -9 -16 -19 4 16 12 -1 4 -14 -19 -20 -20 -20 -20 -20 -20 -20 -20 -20 -20 -20
16 -18 -20 -20 -20 -20 -20 -20 -9 29 12 -5 10 25 17 10 -20 -20 -18 -17 -20 -16 -20 -20 -18 -20 -20 -4 -20 -20 -11 -8 5 -9 -12 -3 -0 15 22 2 -20 -20 -20 -20 -20 -20 -20 -20 -20 -20 -20 -20 -20 -20
16 11 9 -11 4 -20 -20 -20 -20 -20 -11 5 -6 -18 -20 -17 -19 -13 -20 -15 -15 -11 -20 -20 -20 -20 -20 -15 -20 -7 -5 -8 -11 -0 1 -13 -1 -1 1 -20 -20 -20 -20 -20 -20 -20 -20 -20 -20 -20 -20 -20 -20 -20
-14 4 9 23 20 18 13 -2 -20 -16 -6 -3 -8 -17 -12 -11 -13 -13 2 -4 -19 -9 -20 -20 -20 -3 -16 -8 -18 -13 0 -20 -20 -0 -10 -10 -5 -4 -7 -8 -20 -14 -20 -20 -20 -20 -20 -20 -20 -20 -20 -20 -20 -20
-11 4 -10 -19 -13 3 16 19 24 32 30 27 16 23 19 16 14 19 28 14 12 17 18 23 4 -18 -20 -20 -20 -20 1 -20 -2 -3 -20 -13 -20 -20 -2 -20 -20 -20 -20 -20 -20 -20 -20 -20 -20 -20 -20 -20 -20 -20
-20 -20 -20 -20 -20 -20 -20 -19 3 3 -8 -10 -13 -17 -14 -8 16 -9 -10 -9 1 5 -2 -20 -20 -20 -20 -20 -20 -7 -19 -15 -20 -18 -6 -8 3 -1 -11 -20 -20 -20 -20 -20 -20 -20 -20 -20 -20 -20 -20 -20 -20 -20
-20 -20 -20 -20 -20 -20 -16 -9 -19 -11 -1 -0 -6 -20 -15 -4 19 -10 -20 -20 -20 -20 -20 -20 -20 -20 -20 -20 -20 -20 -20 -20 -9 -10 -17 2 17 -20 -20 -20 -20 -20 -20 -20 -20 -20 -20 -20 -20 -20 -20 -20 -20 -20
-20 -20 -20 -20 -20 -20 -20 -20 -20 -20 -19 -8 -9 -20 -20 -17 -10 2 -13 -20 -20 -20 -20 -20 -20 -20 -20 -20 -20 -20 1 -3 -20 -20 -20 -20 -20 -20 -20 -20 -20 -20 -20 -20 -20 -20 -20 -20 -20 -20 -20 -20 -20 -20
-20 -20 -20 -20 -20 -20 -20 -20 -10 -20 -20 -20 -20 -20 -20 -20 -20 -20 -20 -20 -20 -20 -3 -20 -1 -5 -11 -20 -20 -20 -20 -20 -20 -20 -20 -20 -20 -20 -20 -20 -20 -20 -20 -20 -20 -20 -20 -20 -20 -20 -20 -20 -20 -20
-20 -20 -20 -20 -20 -20 -20 -20 -20 -20 -20 -20 -20 -20 -14 -17 -18 -20 -20 -20 -20 -20 -20 -20 -1 -20 -20 -20 -20 -20 -20 -20 -20 -20 -20 -20 -20 -20 -20 -20 -20 -20 -20 -20 -20 -20 -20 -20 -20 -20 -20 -20 -20 -20
-20 -20 -20 -20 -20 -20 -20 -20 -20 -11 -20 -8 -20 -8 4 1 -14 -20 -10 -2 -9 -2 -1 -16 -10 -12 -15 -15 -20 -20 -20 -20 -20 -20 -20 -20 -20 -20 -20 -20 -20 -20 -20 -20 -20 -20 -20 -20 -20 -20 -20 -20 -20 -20
-20 -20 -20 -20 -20 -20 -20 -20 -20 -20 -20 -19 -20 -20 -19 -11 -20 -0 4 1 -2 -14 2 -4 2 5 6 6 8 11 -8 -20 -20 -20 -20 -20 -20 -20 -20 -20 -20 -20 -20 -20 -20 -20 -20 -20 -20 -20 -20 -20 -20 -6
-20 -20 -20 -20 -20 -20 -20 -20 -20 -20 -20 -20 -20 -20 -20 -20 -20 -20 -1 1 -5 -19 -7 5 6 10 13 14 11 9 8 -14 -20 -20 -20 -20 -20 -20 -20 -20 -20 -20 -20 -20 -20 -20 -20 -20 -20 -20 -20 -20 -20 -20
-20 -20 -20 -20 -20 -20 -20 -20 -20 -20 -20 -20 -20 -20 -20 -16 -20 -20 -20 -3 -2 -14 0 6 6 6 8 6 -3 2 3 2 -6 -20 -20 -20 -20 -20 -20 -20 -20 -20 -20 -17 -20 -20 -20 -20 -20 -20 -20 -20 -14 -3
-20 -20 -20 -20 -20 -20 -20 -20 -20 -20 -20 -20 -20 -20 -2 -20 -20 -20 -0 -20 -18 -20 -17 -7 -10 -13 -3 2 -1 -9 -18 -20 -20 -20 -20 -20 -20 -20 -20 -20 -20 -20 -20 -20 -20 -20 -20 -20 -20 -20 -20 -4 -1 -1
-20 -20 -20 -20 -20 -20 -20 -20 -20 -20 -18 -20 -3 -20 -20 -20 -20 -8 -4 -0 -20 -20 -20 -20 -20 -20 -20 -14 -13 -20 -20 -20 -20 -20 -20 -20 -20 -20 -20 -20 -20 -20 -20 -20 -20 -20 -20 -20 -4 -2 -2 -3 -20 -4
-20 -20 -20 -20 -20 -20 -20 -20 -20 -20 -20 -16 -20 -20 -20 -20 -14 -20 -20 -20 -20 -20 -20 -20 -20 -20 -20 -20 -20 -20 -20 -20 -20 -20 -20 -20 -20 -6 -3 -9 -20 -20 -20 -20 -20 -20 -20 -2 -2 -12 -20 -20 -20 -18
-18 -20 -20 -20 -20 -20 -1 -20 2 -17 -20 -20 -20 -20 -20 -20 -20 -10 -20 -20 -20 -20 -20 -20 -20 -20 -20 -20 -20 -20 -20 -20 -20 -20 -20 -20 -20 -18 -4 -2 -13 -13 -20 -20 -20 -20 -20 -20 -20 -20 -20 -20 -20 -20
-20 -20 -20 -20 -20 -20 -20 -20 -18 -15 -20 -20 -20 -20 -20 -20 -20 -20 -20 -20 -20 -20 -20 -20 -20 -20 -20 -20 -20 -20 -20 -20 -20 -20 -20 -20 -20 -8 -1 -14 -2 -16 -20 -20 -20 -20 -20 -20 -20 -20 -20 -20 -20 -20
-20 -20 -20 -20 -20 -20 -20 -20 -20 -20 -19 -20 -20 -20 -20 -20 -20 -17 -20 -20 -20 -20 -20 -20 -20 -20 -20 -20 -20 -20 -20 -20 -20 -20 -20 -20 -20 -2 -19 -20 -20 -20 -20 -20 -20 -20 -20 -20 -20 -20 -20 -20 -20 -20
-20 -20 -20 -20 -20 -20 -20 -20 -20 -20 -20 -20 -20 -20 -20 -20 -20 -20 -20 -20 -20 -20 -20 -20 -20 -20 -20 -20 -20 -20 -20 -20 -20 -20 -20 -20 -20 -20 -20 -6 -20 -20 -20 -20 -20 -20 -20 -20 -20 -20 -20 -20 -20 -20

GFSWCAN_prec_radar_033.txt.gz
Reflectivity
-11 -20 -20 -20 3 10 10 12 20 7 28 30 21 -4 -8 -20 21 21 -0 -20 -20 -20 -20 -20 -20 -20 -20 -20 -20 -20 -20 -20 -20 -20 2 -20 -7 -20 -20 -20 -20 -20 -20 -20 -20 -2 -20 -20 -20 -20 -20 -20 -20 -20
-14 0 2 11 11 6 13 24 36 26 37 28 -9 6 -20 -19 3 26 8 -20 -20 -20 -20 -20 -20 -20 -20 -20 -20 -20 -20 -20 -20 -19 -14 -20 6 9 -20 -20 -20 -20 -20 -20 -20 -20 -20 -20 -20 -20 -20 -20 -20 -20
20 24 33 36 24 27 27 28 25 39 26 18 -7 -20 -5 -15 17 26 16 -20 -20 -20 -20 -20 -20 -20 -20 -20 -20 -20 -20 -20 -20 -20 -20 -20 14 -20 -20 -20 -20 -20 -20 -20 -20 -20 -20 -20 -20 -20 -20 -20 -20 -20
36 32 33 37 29 27 33 28 10 19 4 -20 -19 13 13 -16 20 22 -20 -20 -20 -20 11 -15 -20 -20 -20 -20 -20 -20 -20 -20 -20 -20 -20 -5 8 -20 -20 -20 -20 -20 -20 -20 -20 -20 -20 -20 -20 -20 -20 -20 -20 -20
28 33 32 35 25 18 18 23 15 7 -9 -20 -20 12 11 -20 -13 26 -19 -20 -20 -20 -11 1 -20 -20 -20 -20 -20 -20 -20 -20 -20 -20 11 -8 -20 -20 -20 -20 -20 -20 -20 -20 -20 -20 -20 -20 -20 -20 -20 -20 -20 -20
25 25 13 13 14 13 9 -20 -20 -20 -20 -20 -0 -20 -20 -6 -5 -20 24 -19 9 -20 -15 3 -20 -20 -20 -20 -20 -20 -20 -20 -20 -20 -20 -20 -20 -20 8 -20 -20 -20 -20 -20 -20 -20 -20 -20 -20 -20 -20 -20 -20 -20
16 9 7 6 20 23 -3 -20 -15 0 -9 -5 -20 -20 -20 -1 -4 -6 -19 -20 -3 -7 -20 -3 -5 -20 -20 -20 -20 -20 -20 -20 -20 -20 -20 -20 -20 -20 4 5 -20 -20 -20 -20 -20 -20 -20 -20 -20 -20 -20 -20 -20 -7
4 8 24 13 12 21 22 26 24 6 -12 -20 -20 -20 -20 19 25 7 -20 27 15 -20 -20 6 -19 17 -20 -17 -12 -20 -20 -20 -20 -20 -20 -20 -20 -20 -20 -20 -20 -20 -20 -20 -20 -20 -20 -20 -20 -20 -20 -20 -20 -20
18 -1 -12 -14 4 21 25 21 -20 -19 -20 -20 -19 -20 -19 -20 -4 -20 9 23 4 -20 -20 9 6 1 -20 -16 -13 -19 -20 -20 -19 2 -16 -20 -20 -20 -20 -20 -20 -20 -20 -20 -20 -20 -20 -20 -13 -19 -20 -20 -20 -20
15 13 -6 16 -13 -8 -3 -19 16 -20 30 -3 -19 -18 24 8 -20 -20 10 24 -17 -20 -20 -20 -20 -20 -15 -12 -14 -20 -20 -19 -20 -3 -11 -5 -20 -20 -20 -20 -20 -20 -20 -20 -20 -20 -5 -20 -20 -20 1 -3 -20 -20
-2 10 25 27 24 -12 -20 -18 -20 -20 -20 -20 -20 1 -8 21 31 23 12 10 1 -8 -20 -20 -20 -20 -20 -16 -19 -20 4 -17 -20 -15 -10 -13 -20 -16 -20 -20 -20 -20 -20 -20 -20 -20 -17 -16 -7 -10 -6 -5 -11 -20
-20 -20 -20 -6 28 22 -18 -19 -19 -20 -18 11 4 31 26 -18 -18 12 -10 -11 -20 -20 -11 -3 -11 -10 -11 -20 -20 -3 -20 -16 -20 -11 8 8 -6 -20 -15 -4 -6 -20 -20 -20 -20 -20 -14 -19 -20 -20 -20 -20 -20 -20
-5 -20 -20 -16 -3 14 28 17 -9 -20 -20 -20 -7 -2 -19 6 14 -0 -17 -13 -19 -20 1 10 12 -4 -3 -20 -6 -7 11 5 -20 -2 -4 -19 -17 -1 0 0 -18 -18 -20 -20 -20 -20 -20 -20 -20 -20 -20 -20 -20 -20
-20 -20 -20 -20 -20 -17 8 20 29 9 18 6 15 5 10 -4 -20 -6 -18 -20 -18 -6 -7 -20 -17 -18 -6 4 4 14 -3 -19 4 8 -1 -5 -11 -1 3 -6 -20 -20 -20 -20 -20 -20 -20 -20 -20 -20 -20 -20 -20 -20
-20 -20 -17 -20 -20 -20 -20 -20 -17 14 17 4 -19 -10 -14 -11 -10 -10 -4 -14 -20 -20 -8 -20 -20 -13 -18 -3 -7 -10 -2 -6 2 5 -4 -15 4 7 -8 -18 -20 -20 -20 -20 -20 -20 -20 -20 -20 -20 -20 -20 -20 -20
-6 -13 -20 -5 -20 -20 -20 -20 -20 -15 1 20 7 -17 -19 -17 -5 -3 2 4 -15 -20 -20 -20 -0 2 -7 -20 -16 4 8 7 -19 -0 -8 -1 14 7 2 -20 -4 -4 -20 -20 -20 -20 -20 -20 -20 -20 -20 -20 -20 -20
-20 -20 -20 -14 -6 -1 -5 -20 -11 -0 12 3 4 18 14 8 -4 6 12 1 -8 -6 6 -20 5 -1 -19 -15 2 -11 11 1 -1 1 -18 -1 -13 -9 -5 -13 -20 -20 -20 -20 -20 -20 -20 -20 -20 -20 -20 -20 -20 -20
-20 -20 -20 -20 -20 -20 14 13 28 14 -0 15 -2 1 16 21 23 17 26 19 19 25 29 25 -5 13 16 6 -2 -16 -5 3 3 -20 -20 -20 2 8 6 -11 -20 -20 -20 -20 -20 -20 -20 -20 -20 -20 -20 -20 -20 -20
-20 -20 -20 -20 -20 -20 -16 4 5 10 2 4 10 -1 0 9 8 -2 -11 -15 -10 7 13 14 17 16 11 -8 -12 -20 8 -13 -7 -19 -13 -12 -3 -18 -20 -20 -20 -20 -20 -20 -20 -20 -20 -20 -20 -20 -20 -20 -20 -20
-20 -20 -20 -20 -20 -20 -20 -20 -18 -19 0 -2 4 -3 2 2 1 12 -3 -19 -20 -20 -13 -6 -0 1 -5 -6 2 -19 -20 -18 -20 -20 -18 -1 0 -13 -20 -20 -20 -20 -20 -20 -20 -20 -20 -20 -20 -20 -20 -20 -20 -20
-20 -20 -20 -20 -20 -20 -20 3 -11 -6 -2 -11 0 -20 -2 1 1 3 -20 -13 -20 -0 2 6 -14 -0 -20 -20 -20 4 5 7 -0 -20 -20 -20 -20 -19 -19 -20 -20 -20 -20 -20 -20 -20 -20 -20 -20 -20 -20 -20 -20 -20
-20 -20 -20 -20 -20 -20 -16 -20 1 2 4 5 -17 -20 2 8 6 -1 -12 3 3 7 1 -0 3 -1 -20 -20 -20 -20 13 18 7 -18 -12 -19 -20 -20 -20 -20 -20 -20 -20 -20 -20 -20 -20 -20 -20 -20 -20 -20 -20 -20
-20 -20 -20 -19 -15 -20 -20 -4 -3 0 5 2 -9 3 3 1 5 -1 6 7 9 7 4 -4 2 3 1 3 -16 -20 -20 -19 -17 -4 -8 -12 -13 -20 -20 -20 -20 -20 -20 -20 -20 -20 -20 -20 -20 -20 -20 -20 -20 -5
-20 -20 -19 -20 -20 -20 -20 -17 -3 -2 -2 -20 1 8 -15 -7 1 7 8 1 6 -14 4 9 4 -2 -3 -11 2 4 7 8 10 7 6 7 -2 -20 -20 -20 -20 -20 -20 -20 -20 -20 -20 -20 -20 -20 -20 -20 -7 -5
-20 -20 -20 -20 -20 -20 -20 -20 -3 3 2 4 9 11 8 -8 7 3 5 3 0 0 -1 5 -1 1 -0 3 6 10 10 5 2 5 2 1 -3 -17 -20 -20 -20 -20 -20 -20 -20 -20 -20 -20 -20 -20 -20 -7 -5 -5
-20 -17 -19 -14 -15 -17 -3 -2 -4 -4 0 5 -5 -9 -2 13 0 -2 -2 1 0 -1 -0 -0 7 -11 -19 -16 -14 -10 -9 2 -0 1 2 -6 -16 -20 -20 -20 -20 -20 -20 -6 -10 -20 -20 -20 -20 -20 -20 -4 -2 1
-20 -5 -10 -20 -16 -20 -1 -14 -17 -1 1 -2 -7 7 11 7 -0 0 4 -0 3 -1 -3 -2 -15 -13 -4 -15 -20 -3 -8 -19 -19 -20 -20 -20 -20 -20 -20 -20 -20 -20 -20 -20 -20 -18 -17 -20 -7 -5 -3 -1 1 1
-19 -18 -5 -20 -20 -13 -4 -1 -9 -11 6 -2 3 -4 -17 -12 -14 1 2 4 2 -3 -4 -12 -20 -20 -20 -2 2 2 -7 -20 -20 -20 -20 -20 -20 -20 -20 -10 -6 -20 -20 -6 -20 -15 -3 -2 -1 1 1 2 0 1
-19 -20 -18 -20 -3 -5 -7 -17 -20 -20 -2 -19 3 -8 -2 -4 2 4 0 4 5 7 2 2 -1 -1 -3 -18 -20 -20 -20 -20 -20 -20 -20 -20 -20 -8 -20 -6 -4 -2 -1 -2 -17 -13 -2 -2 -1 1 -0 1 2 2
-9 -16 -2 -20 -20 -18 -13 -10 5 -9 -14 -7 -17 -20 -13 -0 2 3 0 -1 -2 -2 0 0 -0 -1 -9 -1 -8 -20 -20 -20 -20 -20 -20 -20 -20 -7 -3 -0 0 0 1 2 1 -0 -10 -1 -1 1 2 1 2 -0
2 -0 -1 1 -20 -10 -7 -2 1 -6 -3 -8 -7 -7 -9 -1 2 -1 -1 1 -1 -1 1 -0 -20 -4 -20 -20 -20 -20 -20 -15 -20 -20 -20 -20 -5 -1 2 1 3 2 2 2 1 1 0 -2 -0 0 0 -1 -5 -9
-6 -13 -18 -18 -9 -9 -2 -8 -3 6 7 4 -1 -4 -1 1 -3 1 -3 3 2 -2 -20 -3 -3 -20 -20 -20 -20 -20 -20 -20 -20 -20 -20 -4 -2 0 1 1 1 2 2 1 0 0 1 -1 -1 -1 -1 -2 -19 -20
-3 -1 -6 -6 -2 0 -2 -8 -18 -0 0 -1 -1 -1 -4 -0 -12 2 -1 -1 0 0 0 0 0 -1 -18 -20 -20 -20 -20 -13 -20 -17 -20 -20 -20 -18 -14 0 2 2 1 1 -0 0 0 -1 -2 -3 -20 -20 -20 -20

GFSWCAN_prec_radar_036.txt.gz
Reflectivity
-20 -20 -20 -17 10 -15 -20 -15 13 -20 -8 -9 -20 -20 21 12 4 24 6 35 23 29 12 -20 -18 -20 6 -8 35 -20 -20 -20 -20 -20 -20 -13 5 -20 -20 -20 -20 -20 -20 -20 -20 -20 -20 -20 -20 -20 -20 -20 -20 -20
-20 1 1 -17 -20 -20 -20 -20 -13 3 3 -20 -20 9 17 4 8 11 4 -4 16 30 6 -20 11 -20 -16 -14 -7 -20 -20 -20 -20 -20 -13 -20 -0 6 -20 -20 -20 -20 -20 -20 -20 -20 -20 -20 -20 -20 -20 -20 -20 -20
-19 -20 -20 -20 -20 -20 -16 -10 -2 -20 -20 -14 6 11 19 26 8 -7 39 31 51 42 3 -20 -20 -20 -18 13 -17 -20 -20 -20 -20 -20 -20 -20 3 -20 -20 -20 -20 -20 -20 -20 -20 -20 -20 -20 -20 -20 -20 -20 -20 -20
11 11 10 8 -12 -5 -19 -20 -20 11 12 7 -8 0 29 19 23 27 9 31 37 21 8 -18 -20 -20 -20 -20 -20 -20 -20 -20 -20 -20 -20 -20 -1 -20 -20 -20 -20 -20 -20 -20 -20 -20 -20 -20 -20 -20 -20 -20 -20 -20
21 21 23 17 -2 9 15 7 11 24 22 21 6 24 7 14 37 33 24 20 -5 -16 -9 -6 -20 -20 -20 -20 -20 -20 -20 -20 -20 -20 8 0 -20 -20 -20 -20 -20 -20 -20 -20 -20 -20 -20 -20 -20 -20 -20 -20 -20 -20
20 26 25 24 22 24 14 2 8 15 19 24 29 8 27 26 20 20 24 -13 22 -20 -20 -2 -20 -20 -20 -20 -20 -20 -20 -20 -20 -20 -19 -20 -20 -20 -20 -20 -20 -20 -20 -20 -20 -20 -20 -20 -20 -20 -20 -20 -20 -20
33 34 32 28 26 31 30 24 12 13 12 1 7 11 10 34 18 11 -15 -8 -19 -16 -18 -5 -4 -20 -20 -20 -20 -20 -20 -20 -20 -20 -20 -20 -20 -20 -20 -20 -20 -20 -20 -20 -20 -20 -20 -20 -20 -20 -20 -20 -20 -20
34 28 18 4 -6 28 20 -6 9 6 5 9 15 24 33 6 28 18 -9 9 2 -20 -20 10 5 6 -20 12 -20 -20 -8 -17 -20 -20 -20 -20 -20 -20 -2 -20 -20 -20 -20 -20 -20 -20 -20 -20 -20 -20 -20 -20 -20 -20
19 20 22 24 14 13 9 3 -16 11 18 26 19 14 20 31 28 6 22 22 -20 6 10 11 -11 -6 -20 -20 -17 -20 -16 -20 -19 1 -20 -20 -20 -20 -20 -20 -20 -20 -20 -20 -20 -20 -20 -20 -20 -20 -20 -20 -20 -20
12 -13 -19 -15 -18 29 32 4 2 -17 24 -19 -9 14 23 26 28 19 -13 -20 26 13 -18 -3 17 7 -16 1 -14 -18 -5 21 -20 -20 -20 1 -20 -20 -20 -20 -20 -20 -20 -20 -20 -20 -20 -20 -20 -20 -20 -20 -20 -20
21 17 26 23 9 17 13 17 5 -8 10 22 18 14 30 28 8 -14 -20 -6 34 7 -20 -20 -20 4 -2 22 20 4 2 -1 -20 -18 -17 -7 -20 -20 -20 -20 -20 -20 -20 -20 -20 -20 -20 -20 -20 -20 -20 -20 -20 -20
26 28 21 23 9 13 15 0 -19 -20 2 -4 9 11 4 -19 -1 4 -8 -7 24 -6 -20 -18 -20 -20 -20 -20 -18 -19 -20 -20 -9 -20 6 4 -20 -20 -20 -20 -20 -20 -20 -20 -20 -20 -20 -20 -20 -20 -20 -20 -20 -20
-1 21 27 14 19 22 15 31 25 11 -7 -6 -16 16 -14 4 22 9 -4 -12 -17 -18 4 5 4 -7 -18 -20 -5 -20 -20 -2 -18 -5 -19 -19 -20 -20 -19 -20 -20 -20 -20 -20 -20 -20 -20 -20 -20 -20 -20 -20 -20 -20
12 9 13 21 15 16 22 -7 -20 -20 -20 -20 6 7 24 29 7 -15 -19 -9 7 11 -2 -20 -17 -18 -4 -8 -6 -19 -18 -20 -3 -3 -7 -20 -20 -10 -11 -20 -20 -20 -20 -20 -20 -20 -20 -20 -20 -20 -20 -20 -20 -20
-20 -20 -20 -1 15 24 16 -6 -20 -20 2 12 18 14 -12 -9 3 5 3 1 -12 -20 -20 -13 -4 -14 -18 0 -13 -20 -12 -13 -20 -0 -20 -20 -12 -7 -10 -9 -20 -20 -20 -20 -20 -20 -20 -20 -20 -20 -20 -20 -20 -20
-20 -20 -20 -20 -20 -19 -17 7 28 26 17 28 14 9 14 5 -9 -8 -1 1 -20 -20 -18 -13 -7 -15 -20 -20 -20 -19 -2 4 -2 -10 -18 -13 -4 3 12 -17 -2 -20 -16 -20 -20 -20 -20 -20 -20 -20 -20 -20 -20 -20
-20 -20 -20 -20 -20 -20 -20 -20 -2 -8 1 15 20 25 11 -3 -15 -19 -13 -8 -7 -4 -1 -20 -6 -19 -20 -12 -10 -7 -5 -0 -19 -5 9 18 21 20 -3 -20 -20 -20 -20 -20 -20 -20 -20 -20 -20 -20 -20 -20 -20 -20
-20 -20 -20 -20 -20 -20 -20 -20 -18 -20 -6 19 6 24 30 29 26 21 27 5 -10 2 -13 -5 -2 -7 12 8 2 2 23 18 22 10 -5 -1 2 -2 -2 -9 -17 -14 -20 -20 -20 -20 -20 -20 -20 -20 -20 -20 -20 -20
-20 -20 -20 -20 -20 -20 -15 3 4 -0 18 23 27 22 19 23 12 21 16 15 22 25 27 31 24 12 12 16 28 17 -11 -20 -19 -15 -16 6 16 16 19 -12 -20 -20 -20 -20 -20 -20 -20 -20 -20 -20 -20 -20 -20 -20
-20 -20 -20 -20 -20 -20 -20 -4 13 6 1 13 21 15 8 14 10 12 2 10 1 10 10 10 13 15 16 15 21 19 -20 -20 9 -18 -9 -4 -7 -20 -19 -19 -20 -20 -20 -20 -20 -20 -20 -20 -20 -20 -20 -20 -20 -20
-20 -20 -20 -20 -20 -20 -20 -1 -10 -5 3 -5 -7 -3 4 -2 -2 3 3 -10 -20 -2 8 10 10 7 21 21 18 -20 -7 -4 1 -20 -20 -9 -6 -18 -15 -11 -11 -16 -19 -20 -20 -20 -20 -20 -20 -20 -20 -20 -20 -20
-20 -20 -20 -20 -20 -20 -13 -20 -5 -12 1 8 -17 1 6 12 7 2 7 -16 5 12 10 6 4 -5 -16 -6 9 23 26 18 9 -11 -14 -13 -12 -15 -1 0 -2 -6 -18 -20 -20 -20 -20 -20 -20 -20 -20 -20 -20 -10
-20 -20 -20 -20 -20 -20 -12 -8 -15 -9 1 -13 5 3 -6 6 -9 -20 1 6 7 13 10 4 2 5 1 -3 -18 -17 -4 5 12 13 9 4 2 2 -9 -10 3 -3 -19 -18 -20 -20 -20 -20 -20 -20 -20 -20 -20 1
-20 -20 -20 -20 -20 -20 -5 -20 -20 -20 -6 9 2 5 -20 -12 2 9 -0 10 10 5 4 -5 5 5 -19 -19 -20 -14 6 1 -1 6 11 -3 -2 5 2 -1 -9 -18 -20 -20 -20 -20 -20 -20 -20 -20 -20 -20 -2 -3
-20 -20 -20 -20 -19 -20 -19 1 4 2 5 -11 11 10 6 4 7 3 4 11 -2 2 -5 -5 -20 -13 4 0 -5 -18 -4 -2 -2 -15 -6 4 -16 -20 -19 -20 -20 -20 -20 -20 -20 -20 -20 -20 -20 -20 -20 -20 -20 -20
-20 -13 -10 -11 -11 -6 -3 -9 -8 -19 -0 8 -12 -20 3 13 -1 1 3 8 -2 0 0 0 3 -6 -20 -20 -18 -20 -20 -3 -14 -13 -1 -4 -11 -12 -11 -19 -20 -19 -20 -16 -20 -20 -20 -20 -20 -20 -20 -20 -4 1
-17 -12 -13 -20 -20 -9 -4 -5 3 9 -9 10 1 -8 12 12 -6 5 1 -3 2 1 -1 -3 -15 -14 -4 -11 -20 -6 -20 -20 -20 -20 -20 -20 -20 -20 -20 -20 -20 -20 -20 -13 -20 -20 -20 -20 -20 -20 -6 0 3 -7
-20 -20 -17 -20 -20 -7 -20 -13 -5 -2 -2 -20 1 -18 -16 -8 -4 4 6 6 10 -4 -16 -5 -20 -20 -8 -3 -1 -3 2 -20 -20 -20 -20 -20 -20 -20 -20 -11 -20 -20 -19 -19 -20 -15 -8 -6 -4 -3 2 -3 -20 2
-20 -20 -0 -20 -20 -20 -18 7 2 -16 -20 -15 -1 -6 -4 -13 1 4 7 11 -6 -17 -3 2 7 -5 -12 -20 -19 -18 -20 -20 -20 -20 -20 -20 -3 -7 -20 -13 -5 -4 -1 -2 -18 -6 -0 -20 -2 1 -3 -1 -8 -1
-20 -20 -11 -4 -20 -11 6 -12 5 -17 -20 1 -18 -20 -2 -0 4 -0 0 -1 2 1 1 3 3 -14 -16 -0 -3 -20 -20 -20 -20 -20 -20 -20 -20 -20 -3 2 -3 -1 2 -1 0 -0 -11 -2 -14 -8 2 4 2 -8
-20 -2 -4 -1 -6 -4 -12 -18 3 -20 -15 -15 -9 -20 -7 -1 3 -4 -8 9 -4 -12 8 6 -12 -7 -17 -20 -20 -20 -2 -20 -20 -20 -20 -20 -5 -4 2 -0 0 2 0 1 1 -1 1 0 -2 0 0 -1 -14 0
-2 -5 -18 -6 4 -13 -19 -20 -18 11 12 9 3 -7 -4 8 -3 -2 -7 -6 4 -0 -19 -11 -2 -3 -9 -13 -16 -3 -20 -20 -20 -20 -20 -20 -7 -6 -4 -15 -4 3 5 2 0 2 3 2 2 1 -1 1 -19 -20
-6 -12 -7 -8 -0 8 2 0 2 4 -0 5 2 2 -18 -11 -12 3 2 1 1 2 1 1 2 2 -6 -19 -20 -20 -20 -13 -20 -17 -14 -12 -20 -20 -13 -3 -9 -7 -8 -1 -3 -1 0 1 3 1 -9 -18 -3 -20

GFSWCAN_prec_radar_039.txt.gz
Reflectivity
-14 -1 -1 -18 -20 11 21 21 18 28 31 31 27 24 15 3 -20 -16 24 16 30 16 14 -20 -20 -20 -20 5 -20 -20 25 15 -20 8 -20 -20 -20 -20 -20 -20 -20 -20 -20 -20 -20 -20 -20 -20 -20 -20 -20 -20 -20 -20
-19 -17 -16 8 15 13 15 16 15 7 14 24 22 -17 -20 -20 -20 -20 29 21 12 15 20 5 -10 -20 8 -20 -20 -20 26 1 -16 -20 -20 -20 -20 -20 -20 -20 -20 -20 -20 -20 -20 -20 -20 -20 -20 -20 -20 -20 -20 -20
-20 -20 -20 3 -3 9 -20 -20 -9 -14 -20 -20 -20 -20 -20 -20 -14 12 20 25 23 20 6 17 24 -13 -19 -20 -20 -19 0 22 -14 -20 -20 -16 -20 -20 -20 -20 -20 -20 -20 -20 -20 -20 -20 -20 -20 -20 -20 -20 -20 -20
-20 -20 -20 -20 -20 -13 -20 -20 -20 -20 -20 -20 -20 -20 -20 -20 15 18 15 28 29 36 41 18 4 22 14 -7 -20 -20 5 21 4 -20 -20 -20 -20 -20 -20 -20 -20 -20 -20 -20 -20 -20 -20 -20 -20 -20 -20 -20 -20 -20
-20 -20 -20 -20 -20 -20 -20 -19 -18 10 -20 -20 -20 -20 1 17 19 19 16 25 21 29 31 41 20 14 13 -5 -13 -20 28 -20 -20 -20 -20 -20 -20 -20 -20 -20 -20 -20 -20 -20 -20 -20 -20 -20 -20 -20 -20 -20 -20 -20
11 -17 -20 -20 9 -20 -19 -20 -20 -20 -20 -20 -20 5 20 29 26 28 29 27 37 25 35 42 32 -10 5 23 -13 -19 -19 -20 -20 -20 -12 -20 -20 -20 -20 -20 -20 -20 -20 -20 -20 -20 -20 -20 -20 -20 -20 -20 -20 -20
21 -2 4 -6 -19 -16 -17 -20 -20 -20 -14 -16 5 17 26 24 26 35 42 33 27 38 42 29 8 25 27 -20 -20 -20 -9 -10 4 -20 -20 -20 -20 -20 -20 -20 -20 -20 -20 -20 -20 -20 -20 -20 -20 -20 -20 -20 -20 -20
26 29 20 10 12 17 14 8 9 7 -7 -18 8 26 19 1 37 47 38 38 34 31 10 6 -14 -12 17 -0 -3 -20 -13 -20 -20 -20 -20 -20 -20 -20 -20 -20 -20 -20 -20 -20 -20 -20 -20 -20 -20 -20 -20 -20 -20 -20
27 24 24 11 10 25 24 22 20 25 24 23 18 35 36 38 41 25 20 11 13 13 -6 -17 -13 -9 -20 -20 -20 -20 -20 8 -20 -20 -20 -20 -20 -20 -20 -20 -20 -20 -20 -20 -20 -20 -20 -20 -20 -20 -20 -20 -20 -20
29 17 12 1 -8 5 1 3 19 22 24 23 41 45 47 32 2 -19 -19 -16 -20 -20 -20 -20 -20 -20 -20 -20 -20 -20 -20 -20 -20 -20 -20 -20 -20 -20 -20 -20 -20 -20 -20 -20 -20 -20 -20 -20 -20 -20 -20 -20 -20 -20
21 15 14 4 8 -16 -20 -19 -1 -3 27 1 36 30 9 6 -20 -20 -20 -20 -20 -20 -20 -15 15 -13 -20 -12 7 -19 -13 4 -19 -3 -20 -20 -20 -20 -11 -20 -20 -20 -20 -20 -20 -20 -20 -20 -20 -20 -20 -20 -20 -20
22 20 18 18 16 3 -20 -18 -5 -14 23 8 15 3 22 17 -13 -20 -20 -20 -20 -20 -20 -12 9 -2 -20 -6 -4 -5 13 -14 -18 -20 -20 -20 -20 -20 -20 -20 -20 -20 -20 -20 -20 -20 -20 -20 -20 -20 -20 -20 -20 -20
17 29 22 30 23 15 13 18 27 29 27 33 19 23 -7 2 16 -20 -20 -20 -20 -20 0 1 -20 -20 -14 -20 -13 16 10 -20 -20 -20 -20 -20 -20 -20 -20 -20 -20 -20 7 -20 -20 -2 -19 -20 -20 -20 -20 -20 -20 -20
14 19 24 22 32 28 27 27 23 8 -12 7 25 6 12 11 -18 -19 -20 -20 -20 -12 4 23 8 -2 -10 0 -16 -20 -12 -20 -20 -20 -20 -20 -20 -15 -20 -20 -20 -19 -20 -20 -20 -20 -20 -19 -17 -20 -20 -20 -20 -20
-1 21 14 23 33 25 5 23 22 -14 -10 -20 -18 -7 -9 -3 0 -1 -2 -2 2 -11 8 14 13 9 1 -20 -20 -12 -9 -20 -20 -20 -20 -20 -18 -19 -19 -19 -17 -18 -19 -4 -18 -4 -3 -14 -20 -20 -20 -20 -20 -20
-20 -20 -19 19 18 3 11 20 13 -5 -10 -4 -11 -9 5 -2 -2 -16 -4 12 -2 -20 -20 -20 -20 -20 -20 -20 -20 -20 -20 -20 -20 -19 -7 -12 -7 -2 -8 -14 -4 -19 6 12 5 -11 -20 -20 -20 -20 -20 -20 -20 -20
-20 -20 -20 -20 -20 -20 -20 -19 -3 27 30 24 19 19 17 10 -2 11 3 -0 -10 -20 -20 -20 -20 -7 7 2 -19 -20 -20 -20 -20 7 16 -10 -2 -4 11 23 11 -1 20 10 -3 -20 -20 -20 -20 -20 -20 -20 -20 -20
-20 -20 -20 -20 -20 -20 -20 -4 8 7 -4 11 14 20 24 25 23 25 29 22 21 30 28 22 32 24 11 -4 -17 -9 -14 7 22 23 21 22 19 -13 12 15 1 -20 -14 -11 -20 -20 -20 -20 -20 -20 -20 -20 -20 -20
-20 -20 -20 -20 -20 -20 -20 -20 -20 -13 9 13 18 20 19 19 32 31 24 26 23 24 24 21 15 12 8 4 11 14 9 6 2 21 23 25 23 25 17 -11 -7 -8 -18 -20 -20 -20 -20 -20 -20 -20 -20 -20 -20 -20
-20 -20 -20 -20 -20 -20 -20 -20 -20 -20 -6 17 28 23 14 21 27 12 4 3 9 8 12 11 12 16 15 19 19 17 21 15 -20 -16 7 20 25 1 -3 -9 -11 -20 -20 -20 -20 -20 -20 -20 -20 -20 -20 -20 -20 -20
-20 -20 -20 -20 -20 -20 -20 -20 -20 -17 1 -2 2 -20 -18 -20 -9 -10 -11 -13 -7 -1 9 15 14 13 16 19 17 27 23 27 2 -13 -20 -14 3 -15 -20 -20 -18 -20 -20 -16 -18 -20 -20 -20 -20 -20 -20 -20 -20 -20
-20 -20 -20 -20 -20 -20 -20 -20 -19 -20 -20 -20 -20 -20 -20 -20 -17 4 -20 -20 5 10 5 4 8 4 5 2 8 1 11 1 2 5 -8 -14 -12 -3 9 5 -20 -20 -17 -9 0 1 2 -19 -20 -20 -20 -20 -20 -20
-20 -20 -20 -20 -20 -20 -20 -20 -20 -20 -11 -20 -11 -7 4 -11 -5 -6 -19 8 10 5 6 8 -13 -12 -7 -18 -20 -14 3 10 14 17 15 8 7 11 10 13 13 9 4 -3 -15 -16 -20 -20 -20 -20 -20 -20 -20 -20
-20 -20 -20 -20 -20 -20 -20 -20 -7 -15 -17 2 -16 -17 -16 -19 -20 -20 -12 5 1 -20 -20 -11 2 -20 -20 -20 -20 -20 -11 -12 -12 -1 7 4 5 9 8 2 -8 -8 -3 -9 -19 -20 -20 -20 -20 -20 -20 -20 -20 -20
-20 -20 -20 -20 -20 -20 -20 -20 -20 -11 -20 -20 -20 -20 -19 -20 -19 -20 -3 5 -20 -20 -20 -20 -20 -20 -17 -20 -20 -20 -18 -18 -19 -20 -14 -4 -16 -5 -1 1 2 1 -12 -20 -20 -20 -20 -20 -20 -20 -20 -20 -20 -20
-20 -20 -20 -11 -20 -20 -15 -13 -20 -11 -20 -20 -20 -20 -20 -20 -20 -20 -3 -3 -19 -20 -20 -20 -20 -20 -20 -20 -20 -20 -20 -11 -20 -20 -19 -20 -20 -20 -20 -20 -9 -19 -20 -20 -20 -20 -20 -20 -20 -20 -20 -20 -20 -20
-20 -16 -20 -19 -20 -17 -15 -4 -9 -20 -20 -20 -20 -20 -10 -18 -20 -0 -1 -10 -3 -20 -20 -20 -20 -15 -6 -2 -20 -20 -20 -20 -20 -20 -20 -20 -20 -20 -20 -20 -20 -20 -20 -20 -20 -20 -20 -20 -20 -20 -20 -20 -20 -20
-20 -20 -20 -3 -20 -20 -2 -2 -20 -20 -20 -20 -17 -20 -20 -20 -20 -4 -1 -7 7 -20 -20 -20 -20 -20 -20 -20 -20 -20 -20 -20 -20 -20 -20 -20 -20 -20 -20 -20 -20 -20 -20 -20 -20 -20 -20 -20 -20 -20 -20 -20 -20 -20
-14 -20 -20 -20 -20 -20 -20 -15 -19 -19 -20 -20 -20 -20 -20 -11 -14 -1 -2 -5 -20 -20 -20 -20 3 -4 -19 -20 -20 -20 -20 -20 -20 -20 -20 -20 -20 -20 -20 -20 -20 -20 -20 -20 -20 -6 -16 -19 -20 -20 -20 -20 -20 -20
-20 -20 -18 -20 -12 3 -17 -15 -20 -20 -20 -12 -20 -18 -3 -1 -18 -20 -20 -20 -20 -20 -20 -20 -20 -20 -20 -20 -20 -20 -20 -20 -20 -20 -20 -20 -20 -20 -20 -19 -20 -20 -20 -20 -20 -20 -20 -20 -20 -20 -20 -20 -20 -20
-20 -13 -20 -20 -16 -19 -20 5 -20 -10 -20 -20 -20 -20 -20 -17 -20 -20 -20 -20 -20 -16 -18 -20 -20 -20 -20 -20 -20 -20 -20 -20 -20 -20 -20 -20 -20 -20 -20 -20 -20 -20 -20 -14 -20 -20 -20 -20 -20 -20 -20 -20 -20 -20
-11 -20 -20 -20 -20 -20 2 -6 -8 7 -10 -2 -20 -20 -20 -20 -20 -20 -20 -20 -20 -20 -20 -20 -20 -20 -20 -20 -20 -20 -20 -20 -20 -20 -20 -20 -20 -20 -20 -20 -20 -20 -20 -20 -20 -20 -20 -20 -20 -1 -20 -20 -20 -20
-20 -20 -20 -20 -4 -4 -20 -20 3 -20 -20 -20 -12 -20 -20 -20 -20 -17 -20 -20 -20 -20 -20 -20 -20 -20 -19 -20 -20 -20 -20 -20 -20 -20 -20 -20 -20 -20 -20 -20 -20 -20 -20 -20 -20 -20 -20 -20 -20 -20 -20 -20 -20 -20

GFSWCAN_prec_radar_042.txt.gz
Reflectivity
27 21 11 1 -16 -18 -6 -7 -5 10 -20 -20 -20 -20 -20 -20 3 15 -2 20 32 12 5 -1 -20 -20 -20 -20 -20 -20 -0 -20 6 4 -11 -20 -20 -20 -20 -20 -20 -20 -20 -20 -20 -20 -20 -20 -20 -20 -20 -20 -20 -20
9 -0 -18 2 9 -11 11 17 -20 -16 -19 -20 -20 -12 -19 5 6 16 -16 19 25 20 34 -4 -18 -20 -20 -20 -20 -20 -20 -20 -20 14 -20 -17 -20 -20 -20 -20 -20 -20 -20 -20 -20 -20 -20 -20 -20 -20 -20 -20 -20 -20
9 -18 6 -19 -3 -14 14 13 17 6 16 15 16 12 3 6 3 18 14 -19 31 28 30 -5 -17 -20 -20 -20 -20 -13 -15 -16 -14 -20 13 -18 -20 -20 -20 -20 -20 -20 -20 -20 -20 -20 -20 -20 -20 -20 -20 -20 -20 -20
-5 12 5 9 15 6 21 8 16 15 23 25 27 24 24 25 33 19 11 14 -6 -5 16 26 20 18 -20 -20 -20 -20 9 -13 -17 30 11 -15 -20 -20 -20 -20 -20 -20 -20 -20 -20 -20 -20 -20 -20 -20 -20 -20 -20 -20
-20 -20 -11 -3 6 9 -7 -3 14 21 16 16 21 21 24 27 17 6 18 33 28 11 20 0 -17 25 -20 -20 -18 12 -11 -20 -20 3 29 8 -20 -20 -20 -20 -20 -20 -20 -20 -20 -20 -20 -20 -20 -20 -20 -20 -20 -20
-20 -20 -20 11 -19 -20 -19 -20 -20 -19 20 16 23 19 9 18 20 13 14 9 25 35 1 2 3 -19 9 -15 0 -20 -2 -20 -20 -20 -2 19 -2 -20 -20 -20 -20 -20 -20 -20 -20 -20 -20 -20 -20 -20 -20 -20 -20 -20
-20 -20 -20 -20 -20 -20 -20 -20 -20 15 17 17 3 8 12 -18 -4 16 25 1 9 17 34 45 30 22 25 36 32 20 22 5 -20 -15 -19 -4 -15 -20 -20 -20 -20 -20 -20 -20 -20 -20 -20 -20 -20 -20 -20 -20 -20 -20
-7 -20 -20 -20 -20 -20 -20 -20 -20 -20 -9 -20 -20 -20 9 19 29 22 38 35 31 25 28 29 36 31 37 36 39 32 23 15 24 -3 -20 -20 -20 -20 -20 -20 -20 -20 -20 -20 -20 -20 -20 -20 -20 -20 -20 -20 -20 -20
16 -7 -20 -20 -20 -20 -20 -20 -20 -20 -20 -20 -20 16 28 33 20 2 22 34 43 35 37 31 36 34 31 32 -9 -13 31 35 20 7 -20 7 -20 -20 -20 -20 -20 -20 -20 -20 -20 -20 -20 -20 -20 -20 -20 -20 -20 -20
29 26 15 8 -19 -20 -20 -20 -20 -20 -19 8 34 29 20 -1 38 38 35 36 27 31 12 8 21 34 14 -16 -18 -20 -20 -20 -20 5 -7 -20 -20 -20 -20 -20 -20 -20 -20 -20 -20 -20 -20 -20 -20 -20 -20 -20 -20 -20
17 22 13 16 11 -13 -20 -5 2 17 37 35 37 38 37 37 39 37 37 31 18 16 7 2 -19 -11 -12 -20 -20 -20 -20 -20 -20 -20 -20 -20 -20 -20 -20 -20 -20 4 6 -20 -20 -20 -20 -20 -20 -20 -20 -20 -20 -20
22 28 16 11 -16 -12 4 26 27 27 28 1 29 36 36 42 34 30 10 -12 -3 2 -18 -20 -20 -20 -20 -20 -20 -20 -20 -20 -20 -20 -20 -20 -20 -18 9 10 14 -10 -20 -20 -20 -20 -20 -20 -20 -20 -20 -20 -20 -20
6 4 1 12 16 15 14 21 32 23 8 27 38 36 31 20 6 8 -13 -20 -20 -20 -20 -16 -20 4 -20 -6 0 -20 -20 -17 -20 -20 -20 -20 -20 1 -1 -15 -1 -10 -20 -20 -20 -20 -20 -20 3 -18 -20 -20 -19 -20
26 20 12 18 25 26 23 28 34 21 26 35 23 6 10 2 2 4 -4 -19 -10 3 -20 -20 1 5 -5 -3 -19 6 -20 -20 -20 -20 -20 -20 -18 -19 -20 -19 -20 -20 -7 5 -9 -15 14 2 -18 -18 -20 -20 -20 -20
18 16 27 35 16 -6 -18 -19 -17 9 -2 10 18 6 -13 2 12 9 15 -1 9 5 -20 -20 -20 -19 -20 9 7 -20 -20 -20 -20 -20 -20 -0 2 -4 -16 -20 -20 -20 -19 -19 -13 -6 -7 -3 5 6 -3 -20 -20 -20
21 15 5 8 19 19 22 -3 -20 -20 -20 -20 -20 2 16 16 19 17 17 14 10 -19 -20 -20 -20 -20 -19 -9 -19 -20 -20 -20 -20 -16 -10 -16 -20 -20 -20 -18 -16 -16 -0 -16 -16 -7 4 3 4 -8 -20 -20 -20 -20
-15 -16 9 18 -11 -20 -20 -20 -20 -20 -20 -20 -12 12 -13 -15 1 11 -13 7 6 -9 -20 -20 -20 -20 -7 -1 -6 -5 -20 -20 -20 -20 -20 -17 -18 -13 -1 -7 1 16 -11 -5 6 7 -13 -14 -1 -18 -20 -20 -20 -20
-20 -20 -20 -20 -20 -20 -20 -20 -19 -19 -19 -2 3 6 7 11 5 6 15 4 -12 0 -9 -7 -7 -20 -10 -19 2 10 15 20 22 12 13 -2 19 21 10 -5 19 15 4 -9 -18 -20 -19 -8 -13 -20 -20 -20 -20 -20
-20 -20 -20 -20 -20 -20 -19 5 -16 -19 9 13 18 10 4 10 8 9 11 15 27 28 20 15 12 10 10 12 16 18 18 19 18 17 23 23 20 23 6 9 18 14 3 -3 -17 -20 -20 -20 -20 -20 -20 -20 -20 -20
-20 -20 -20 -20 -20 -20 -20 -20 -20 -10 -0 14 14 -12 -0 8 -3 -9 0 2 7 5 10 6 10 13 14 18 18 18 20 26 14 -20 5 9 16 17 13 6 3 7 0 3 -19 -20 -20 -20 -20 -20 -20 -20 -20 -20
-20 -20 -20 -20 -20 -20 -20 -20 -20 -20 -20 6 18 -13 9 -12 -20 -20 -20 -20 -20 0 12 16 15 14 15 17 15 12 6 17 16 12 10 13 18 15 15 14 1 1 -17 -20 -20 -20 -6 -1 -10 -18 -20 -20 -20 -20
-20 -20 -20 -20 -20 -20 -20 -20 -20 -20 -20 -20 -20 -20 -20 -20 -20 -20 -20 -20 -6 4 15 10 12 10 9 7 10 7 14 12 -8 -18 -13 -7 -14 -16 -14 -4 -11 -5 2 6 1 -10 -15 -19 -20 -19 -18 -20 -20 -20
-20 -20 -20 -20 -20 -20 -20 -20 -20 -20 -20 -20 -20 -20 -20 -20 -1 -20 -20 3 4 9 10 2 -16 -16 -14 0 -0 1 2 -1 6 11 12 9 9 12 11 10 7 2 7 15 14 11 5 -9 -7 -17 -20 -20 -20 -20
-20 -20 -20 -20 -20 -20 -20 -20 -20 -20 -20 -20 -20 -19 -20 1 -16 -20 -15 -16 2 -1 -20 -20 -20 -20 -20 -20 -20 -20 -18 -16 -5 -4 5 -1 -7 1 2 5 5 7 6 4 0 -6 -14 -19 -20 -20 -20 -20 -20 -20
-20 -20 -20 -20 -20 -20 -20 -20 -20 -20 -20 -20 -20 -20 -20 -20 -20 -20 -20 -5 -20 -20 -20 -20 -20 -20 -20 -20 -20 -20 -20 -20 -20 -20 -18 -18 -18 -20 -20 -20 -20 -20 -20 -20 -20 -20 -20 -20 -20 -20 -20 -20 -20 -20
-20 -15 -19 -20 -20 -20 -20 -20 -20 -19 -20 -20 -20 -20 -20 -20 -20 -20 -8 -14 -20 -20 -20 -20 -20 -20 -20 -20 -20 -20 -20 -20 -20 -20 -20 -20 -20 -20 -20 -20 -20 -20 -20 -20 -20 -20 -20 -20 -20 -20 -20 -20 -20 -20
-17 -20 -20 -20 -20 -20 -20 -20 -20 -20 -20 -20 -20 -20 -17 -20 -20 -7 -5 -20 -20 -20 -20 -20 -20 -20 -20 -20 -14 -20 -20 -20 -20 -20 -20 -20 -20 -20 -20 -20 -20 -20 -20 -20 -20 -20 -20 -20 -20 -20 -20 -20 -20 -20
-20 -20 -20 -20 -20 -20 -20 -20 -20 -20 -20 -20 -20 -20 -20 -20 -13 -5 -8 -5 -20 -20 -20 -20 -20 -20 -20 -20 -20 -20 -20 -20 -20 -20 -20 -20 -20 -20 -20 -20 -20 -20 -20 -20 -20 -20 -20 -20 -20 -20 -20 -20 -20 -20
-20 -20 -20 -20 -20 -20 -20 -20 -20 -20 -20 -20 -20 -20 -20 -13 -20 -11 -20 -20 -20 -20 -20 -20 -20 -20 -20 -20 -20 -20 -20 -20 -20 -20 -20 -20 -20 -20 -20 -20 -20 -20 -20 -20 -20 -20 -17 -20 -20 -20 -20 -20 -20 -20
-20 -20 -20 -20 -20 -20 -11 -20 -20 -20 -20 -20 -20 -18 -20 -20 -20 -20 -20 -20 -20 -20 -20 -20 -20 -20 -20 -20 -20 -20 -20 -20 -20 -20 -20 -20 -20 -20 -20 -20 -20 -20 -20 -20 -20 -20 -20 -20 -20 -20 -20 -20 -20 -20
-20 -20 -20 -20 -20 -20 -16 -20 -20 -20 -20 -20 -20 -20 -20 -20 -20 -20 -20 -20 -20 -20 -20 -20 -20 -20 -20 -20 -20 -20 -20 -20 -20 -20 -20 -20 -20 -20 -20 -20 -20 -20 -20 -20 -20 -20 -20 -20 -20 -20 -20 -20 -20 -20
-20 -20 -20 -20 -20 -20 5 -3 -2 -20 -20 -20 -20 -20 -20 -20 -20 -20 -20 -20 -20 -20 -20 -20 -20 -20 -20 -20 -20 -20 -20 -20 -20 -20 -20 -20 -20 -20 -20 -20 -20 -20 -20 -20 -20 -20 -20 -20 -20 -20 -20 -20 -20 -20
-20 -20 -20 -20 -20 -20 -20 -20 -20 -20 -20 -20 -20 -20 -20 -20 -20 -20 -20 -20 -20 -20 -20 -20 -20 -20 -20 -20 -20 -20 -20 -20 -20 -20 -20 -20 -20 -20 -20 -20 -20 -20 -20 -20 -20 -20 -20 -20 -20 -20 -20 -20 -20 -20

GFSWCAN_prec_radar_045.txt.gz
Reflectivity
32 33 33 32 32 29 26 26 12 -4 -20 -20 -20 6 21 18 12 25 31 7 -4 2 -9 -3 -15 -20 -20 -20 -20 -20 -20 -20 -20 -20 9 20 -20 -20 -20 -20 -20 -20 -20 -20 -20 -20 -20 -20 -20 -20 -20 -20 -20 -20
31 27 27 29 28 28 28 22 6 -14 -20 -20 -2 -19 -20 -18 17 33 31 28 25 4 26 1 -20 -20 -20 -20 -20 -20 -20 -20 -20 -20 -8 20 -20 -20 -20 -20 -20 -20 -20 -20 -20 -20 -20 -20 -20 -20 -20 -20 -20 -20
16 17 18 15 17 17 14 10 -20 -20 -5 -0 4 -20 -18 12 11 22 25 7 26 3 -18 -19 -20 -20 -20 -20 -20 -20 -20 -20 -15 -19 18 -3 -20 -20 -20 -20 -20 -20 -20 -20 -20 -20 -20 -20 -20 -20 -20 -20 -20 -20
7 -20 -20 -20 -15 -20 -20 -20 -20 -20 13 -20 -20 -20 -20 -1 -14 -4 11 19 13 11 -16 -9 24 -20 -20 -20 -20 -20 -20 -6 2 21 23 9 -20 -20 -20 -20 -20 -20 -20 -20 -20 -20 -20 -20 -20 -20 -20 -20 -20 -20
-15 -1 1 7 -0 6 5 5 -20 -20 -20 -20 -20 -20 -20 -20 1 10 11 17 28 12 14 21 14 -1 27 -20 -18 -20 -20 -10 -20 18 -9 -20 -20 -20 -20 -20 -20 -20 -20 -20 -20 -20 -20 -20 -20 -20 -20 -20 -20 -20
-20 18 -6 6 12 2 26 16 19 26 13 11 -20 -20 -20 -19 -19 22 16 30 33 26 23 31 -13 -20 24 24 -12 -20 -20 -20 -19 17 -5 -20 -20 6 -7 -15 -20 -15 -20 -20 -20 -20 -20 -20 -20 -20 -20 -20 -20 -20
-11 -20 -20 -20 -20 -0 8 25 18 24 -3 19 7 2 13 19 6 7 10 -13 -2 37 36 38 -7 13 28 24 -10 -20 -20 19 14 8 26 -12 -20 -20 9 -7 -20 -2 -20 -20 -20 -20 -20 -20 -20 -20 -20 -20 -20 -20
-20 -14 -20 -20 -20 -20 -20 -20 15 23 26 7 20 29 15 28 33 -8 -20 7 2 24 29 10 -13 -2 4 22 4 20 16 21 16 13 14 -20 -20 -20 -20 -20 -17 3 -20 -20 -20 -20 -20 -20 -20 -20 -20 -20 -20 -20
-20 -20 -20 -20 -20 -20 -20 -20 -20 -16 8 8 14 -14 14 11 -4 -20 36 26 15 -14 13 1 0 -5 36 26 -11 20 23 16 19 -9 -8 13 -20 -20 -20 -20 -20 -6 -20 -20 -20 -20 -20 -20 -20 -20 -20 -20 -20 -20
-20 -20 -20 -20 -20 -20 -20 -20 -20 -20 -20 18 15 1 22 -11 -2 31 32 22 34 31 16 6 -4 10 31 35 25 9 11 32 32 33 21 -12 -20 -20 -20 -20 -20 -20 -20 -20 -20 -20 -20 -20 -20 -20 -20 -20 -20 -20
-20 -20 -20 -20 -20 -20 -20 -20 -20 -20 -9 13 18 40 16 37 -11 19 39 33 32 32 18 27 33 4 27 30 31 33 42 43 37 38 34 32 25 -4 -20 -20 -20 -14 -15 -20 -20 -20 10 5 -14 -10 -20 -20 -20 -20
-20 -20 -20 -20 -20 -20 -3 -1 -1 14 18 21 35 23 30 20 12 26 24 33 26 26 14 15 -6 -17 38 37 38 35 24 28 11 -20 1 10 -1 3 -4 -7 -2 -15 -20 -7 5 11 8 -20 -20 -20 -20 -20 -20 -18
-19 -20 -10 24 15 25 26 22 30 23 42 24 26 27 36 36 27 19 17 8 9 15 6 -2 -20 -20 -1 14 26 21 13 -9 -20 -19 -20 -20 -20 -20 -20 -20 -20 -20 -20 1 -20 -16 -20 11 -17 -20 -20 -20 -16 -20
-20 -20 4 21 14 4 5 34 35 40 38 37 37 23 18 15 11 14 8 6 -0 4 -11 4 -17 -20 -20 -20 -20 -20 -20 -20 -20 -20 -20 -20 -20 -20 -20 -20 -20 -8 6 9 5 8 3 -13 -20 -17 -9 -18 -20 -14
14 12 18 24 23 30 35 39 31 24 37 32 24 4 -4 14 17 17 18 -4 13 -2 -20 -15 -20 -20 -18 -20 -20 -20 -20 -16 -20 -20 -1 -20 -20 -20 -18 -3 4 4 9 -1 -9 -9 -16 -15 -12 -18 -20 -16 1 -2
33 28 24 25 28 31 28 19 17 21 10 -19 -16 -11 -16 -20 -20 -16 -5 7 13 -2 -20 -20 -20 -20 16 4 -20 -10 -20 -20 -20 1 -9 -19 -18 -20 -20 -20 -16 -15 -17 -16 -14 -15 -5 -1 -20 -10 -1 -1 -20 -20
31 8 29 30 31 29 23 15 -14 -20 -20 -20 10 16 -15 -10 2 4 4 6 -10 -20 -20 -20 -20 -17 -14 -20 -15 -2 -4 -11 -16 -20 -20 -20 -20 -20 -10 18 21 12 -0 -15 -14 -10 -14 -6 -0 5 -17 -20 -20 -20
24 32 33 23 26 31 24 28 15 -18 -18 3 5 13 8 9 11 11 10 20 18 19 -7 -15 -7 6 1 -12 -9 7 12 7 3 3 12 26 27 24 24 20 19 4 6 8 8 4 7 8 -7 -20 -20 -20 -20 -20
-20 -20 -20 -20 -19 -11 -17 -7 1 -10 7 7 9 14 0 6 7 7 12 22 28 20 13 6 -6 -10 -8 -10 -4 1 13 15 18 18 10 25 24 26 28 28 23 11 9 5 1 1 -4 -5 -18 -20 -20 -20 -20 -20
-20 -20 -20 -20 -20 -20 -20 -15 -16 -9 7 19 16 12 1 8 -8 -20 -19 -18 1 4 1 -2 9 13 13 14 15 17 18 20 12 8 14 15 19 22 19 13 9 8 5 6 8 4 1 -14 -20 -20 -20 -20 -20 -20
-20 -20 -20 -20 -20 -20 -20 -20 -20 -13 -3 10 20 0 -2 9 -4 -20 -20 -20 -20 -4 12 16 14 15 16 18 18 19 14 7 7 -5 6 8 13 12 13 15 14 11 5 6 -7 2 -1 -2 -4 -15 -16 -10 -14 -20
-20 -20 -20 -20 -20 -20 -20 -20 -20 -20 -20 -17 -20 -20 -20 -20 -20 -20 -20 -20 -3 8 12 10 11 11 10 6 12 12 15 13 11 10 11 8 5 8 10 12 12 11 10 10 7 3 2 4 4 2 -6 -15 -17 -19
-20 -20 -20 -20 -20 -20 -20 -20 -20 -20 -20 -20 -20 -20 -20 -20 -20 -20 -20 -8 2 8 5 -1 2 1 2 8 2 -3 2 6 6 9 9 8 8 9 8 8 7 2 -1 2 -3 -5 -4 -5 -5 -4 -7 -6 -15 -20
-20 -20 -20 -20 -20 -20 -20 -20 -20 -20 -20 -20 -20 -20 -16 -20 -20 -20 -20 -20 -2 -4 -19 -19 -19 -20 -19 -20 -20 -20 -20 -20 -19 -19 -6 -15 -20 -13 -18 -16 -18 -18 -16 -15 -18 -18 -18 -19 -19 -19 -20 -20 -20 -20
-20 -20 -20 -20 -20 -20 -20 -20 -20 -20 -20 -20 -20 -20 -20 -20 -20 -20 -20 -20 -20 -20 -20 -20 -20 -20 -20 -20 -20 -20 -20 -20 -20 -20 -20 -20 -20 -20 -20 -20 -20 -20 -20 -20 -20 -20 -20 -20 -20 -20 -20 -20 -20 -20
-20 -20 -20 -20 -20 -20 -20 -20 -20 -20 -20 -20 -20 -20 -20 -20 -20 -20 -18 -20 -20 -20 -20 -20 -20 -20 -20 -20 -20 -20 -20 -20 -20 -20 -20 -20 -20 -20 -20 -20 -20 -20 -20 -20 -20 -20 -20 -20 -20 -20 -20 -20 -20 -20
-20 -20 -20 -20 -20 -20 -20 -20 -20 -20 -20 -20 -20 -20 -20 -20 -20 -7 -1 -20 -20 -20 -20 -20 -20 -20 -20 -20 -20 -20 -20 -20 -20 -20 -20 -20 -20 -20 -20 -20 -20 -20 -20 -20 -20 -20 -20 -20 -20 -20 -20 -20 -20 -20
-20 -20 -20 -20 -20 -20 -20 -20 -20 -20 -20 -20 -20 -20 -20 -20 -20 -20 -19 6 -20 -20 -20 -20 -20 -20 -20 -20 -20 -20 -20 -20 -20 -20 -20 -20 -20 -20 -20 -20 -20 -20 -20 -20 -20 -20 -20 -20 -20 -20 -20 -20 -20 -20
-20 -20 -20 -20 -20 -20 -20 -20 -20 -20 -20 -20 -20 -20 -20 -20 -20 -20 -20 -20 -20 -20 -20 -20 -20 -20 -20 -20 -20 -20 -20 -20 -20 -20 -20 -20 -20 -20 -20 -20 -20 -20 -20 -20 -20 -20 -20 -20 -20 -20 -20 -20 -20 -20
-20 -20 -20 -20 -20 -20 -20 -20 -20 -20 -20 -20 -20 -18 -20 -20 -20 -20 -20 -20 -20 -20 -20 -20 -20 -20 -20 -20 -20 -20 -20 -20 -20 -20 -20 -20 -20 -20 -20 -20 -20 -20 -20 -20 -20 -20 -20 -20 -20 -20 -20 -20 -20 -20
-20 -20 -20 -20 -20 -20 -20 -20 -20 -20 -20 -20 -20 -20 -20 -20 -20 -20 -20 -20 -20 -20 -20 -20 -20 -20 -20 -20 -20 -20 -20 -20 -20 -20 -20 -20 -20 -20 -20 -20 -20 -20 -20 -20 -20 -20 -20 -20 -20 -20 -20 -20 -20 -20
-20 -20 -20 -20 -20 -19 -20 -20 -20 -20 -20 -20 -20 -20 -20 -20 -20 -20 -20 -20 -20 -20 -20 -20 -20 -20 -20 -20 -20 -20 -20 -20 -20 -20 -20 -20 -20 -20 -20 -20 -20 -20 -20 -20 -20 -20 -20 -20 -20 -20 -20 -20 -20 -20
-20 -20 -20 -20 -20 -19 -20 -19 -20 -20 -20 -20 -20 -20 -20 -20 -20 -20 -20 -20 -20 -20 -20 -20 -20 -20 -20 -20 -20 -20 -20 -20 -20 -20 -20 -20 -20 -20 -20 -20 -20 -20 -20 -20 -20 -20 -20 -20 -20 -20 -20 -20 -20 -20